Погода Борзя

Погода Борзя : погода сейчас, прогноз погоды и архив. Всё, что Вы хотите узнать о погоде Борзя!

Хотите узнать прогноз погоды Борзя? Тогда Вам сюда: Погода Борзя

Поиск расширенной информации на нашем сайте:

Полезная информация: Описание составных частей цементного клинкера.

Другие новости

Новости СМИ2

Главная страница сайта

Новости сайта

02.10.2013

Напоминаем, что на нашем новом сайте вы можете получить высокодетализированные прогнозы погоды по пунктам России, СНГ и мира (включающие важные для авиации метеовеличины, такие как направление и скорость ветра, видимость, явления погоды, количество и форма облачности, нижняя и верхняя граница облачности), а также ознакомиться с разнообразными материалами по авиационной метеорологии и подборкой полезных ссылок на эту тему.

Сайт Метеоцентр.Азия посвящён разработке технологий оптимизации авиаметеорологического обслуживания, включая проектирование и перспективное создание нескольких автоматизированных авиаметеорологических систем:
- система выпуска высокодетальных прогностических карт явлений погоды для нижнего воздушного пространства по России и ближнему зарубежью;
- система верификации прогнозов TAF (выпускаемых синоптиками официальных АМСГ РФ и ближнего зарубежья) и AUTOTAF (выпускаемых сайтом Метеоцентр.Азия) - выявление ошибок, онлайн-сопоставление с фактической погодой METAR, автоматическое внесение коррективов в прогнозы при резком отклонении фактической погоды от прогноза, подсчёт оправдываемости прогнозов по элементам и в целом;
- система обработки, анализа и отображения авиаметеорологической информации для применения провайдерами метеорологической информации.

Рекомендуем: Патенты автора махлай сергей.

Погода Борзя - сегодня

Время (UTC), дата Ветер
(°,м/с) 
Видим.   Явления Облачность Т
(°С)
Тd
(°С)
f(%) Тe
(°С)
Pmin
(гПа)
dP
(гПа)
Po
(мм)
O2
(г/м3)
Тmin Tmax R s Состояние
почвы
09 16.02.17 310 (СЗ) 5{14}  20000 м    3/0 верхняя 
[Ci sp]
-15.2 -24.4 45 -21  1027.5  0.5  705  302           
12 16.02.17 230 (ЮЗ) н/о    ясно 
-22 -27.3 62 -25  1031.5  1.4  706  311    -13.8       
15 16.02.17 210 (ЮЗ) н/о    3/0 верхняя 
[Ci sp]
-23.1 -27.7 66 -26  1032  0.2  706  313           
18 16.02.17 300 (СЗ) н/о    ясно 
-24.3 -29.8 60 -27  1032.6  0.2  707  314           
21 16.02.17 330 (СЗ) н/о    ясно 
-25.9 -30.5 65 -29  1034.6  1.2  707  317           
00 17.02.17 050 (СВ) 20000 м    ясно 
-25.9 -33.4 49 -29  1035.4  0.7  708  317  -27.8      равномерный
сухой снег
100% 
03 17.02.17 340 (С) 20000 м    ясно 
-20.4 -32.2 34 -21  1033.6  0.7  708  310           
06 17.02.17 250 (З) 20000 м    ясно 
-17.9 -28.6 39 -22  1031.9  -0.8  708  307           
09 17.02.17 300 (СЗ) 20000 м    ясно 
-18.6 -30.1 36 -24  1031.7  -0.4  707  308           
12 17.02.17 250 (З) н/о    ясно 
-24.9 -30.2 61 -28  1034.6  0.5  708  315    -17.2       
15 17.02.17 060 (СВ) н/о    ясно 
-33.5 -37.9 65 -34  1037.6  -0.4  707  327           
18 17.02.17 060 (СВ) н/о    ясно 
-35.8 -40.3 63 -40  1038.2  -0.3  707  330           
21 17.02.17 100 (В) н/о    ясно 
-35.1 -39.4 65 -36  1036.1  -1.6  706  328           
00 18.02.17 080 (В) 20000 м    1/0 верхняя 
[Ci fib]
-36.2 -40.8 63 -41  1035.4  -1  705  330  -37.8      равномерный
сухой снег
100% 
03 18.02.17 070 (В) 20000 м    9/0 верхняя 
[Ci sp]
-23.5 -30 55 -28  1028  -1  704  312           
06 18.02.17 150 (ЮВ) 20000 м    10/0 верхняя 
[Cs]
-17 -25.3 49 -22  1021  -4.2  700  303           
09 18.02.17 120 (ЮВ) 4{10}  20000 м    10/0 средняя 
[As op]
-17.6 -24.8 53 -23  1018.8  -2.1  699  302           
12 18.02.17 110 (В) 5-10{10}  н/о  слаб. снег  10/0 средняя 
[As op]
-19.2 -24.7 62 -26  1017.5  -1.7  697  304    -16.6  0.0     
15 18.02.17 070 (В) 4{11}  н/о  слаб. снег  10/0 средняя 
[As op]
-19.3 -23.2 71 -25  1016.9  -0.6  697  304           
18 18.02.17 060 (СВ) н/о  слаб. снег  10/0 средняя 
[As op]
-19.7 -23 75 -25  1017.3  0.2  697  304           
21 18.02.17 тихо ()   н/о  слаб. снег  10/0 средняя 
[As op]
-19.3 -22 79 -19  1018.2  698  304           
00 19.02.17 340 (С) 10 км  слаб. снег  10/0 средняя 
[As op]
-18.8 -22 76 -23  1019.9  1.7  699  304  -19.7    равномерный
сухой снег
100% 
03 19.02.17 350 (С) 20000 м  слаб. снег  9/0 средняя, верхняя 
[Ac lent|Ci sp]
-16.8 -20.6 72 -23  1021.1  1.8  701  302           
06 19.02.17 330 (СЗ) 6{10}  20000 м  {снег}  9/0 средняя, верхняя 
[Ac lent|Ci sp]
-15.1 -20.7 62 -21  1022.2  1.5  702  301           
09 19.02.17 330 (СЗ) 5{10}  20000 м    3/0 верхняя 
[Ci sp]
-15.2 -21.1 61 -21  1024.6  2.3  703  302           
Время (UTC), дата Ветер
(°,м/с) 
Видим.   Явления Облачность Т
(°С)
Тd
(°С)
f(%) Тe
(°С)
Pmin
(гПа)
dP
(гПа)
Po
(мм)
O2
(г/м3)
Тmin Tmax R s Состояние
почвы

Для получения пояснительной информации подведите курсор к названию столбца.

ПОГОДА Борзя - архив

Всё, что Вы хотите узнать о погоде Борзя - удобно и подробно!

Выберите нужную дату (начиная с 1 января 2015* года) и нажмите кнопку "Найти".
Будут отображены архивные сводки погоды по пункту Борзя, начиная с указанной даты.


Отображать данные в формате CSV (для использования в таблицах Excel)


Внимание! Наш архив погоды предназначен исключительно для личного некоммерческого использования в познавательных целях. Если Вам необходимы официальные справки о состоянии погоды (для производственных, юридических, коммерческих и т.п. целей), обращайтесь в органы Росгидромета.

*Примечание: данная дата относится к архиву по метеостанциям СССР (Россия, СНГ, Балтия).
Архив по метеостанциям Зарубежной Европы и Азии (кроме Китая) хранится 10 дней, по другим регионам земного шара (Китай, Африка, Америка, Австралия, Океания) - 1 день.

Борзя - район местоположения метеостанции


Название, широта, долгота, высота метеостанции:
Борзя 50.4°ш. 116.5°д. 676 м над ур. моря [Российская Федерация]

Дополнительная информация

В oтличие oт бoльшинства пoгoдных сайтoв мы публикуем пoдрoбную метеoинфoрмацию в детальнoм прoфессиoнальнoм фoрмате.

Характеристики температуры и влажнoсти вoздуха измеряются на высoте 2 м в тени вдали oт зданий и деревьев.
Скoрoсть ветра измеряется на высoте 10 м (на урoвне рoста челoвека скoрoсть ветра ниже в 1.5-2 раза). Если метеoстанция нахoдится в гoрoде или в лесу, тo скoрoсть ветра занижена на 2-4 м/с пo сравнению с oткрытым местoм. Скoрoсть ветра над акватoриями крупных рек и oзёр, а также на вершинах хoлмoв на 2-5 м/с выше, чем в oбычных услoвиях.
Атмoсфернoе давление в разных тoчках местнoсти мoжет значительнo oтличаться oт давления на метеoстанции, в зависимoсти oт услoвий рельефа (при пoдъёме на 10 м давление пoнижается примернo на 1 мм рт.ст.).